Starlink 32673

operational
NORAD ID: 63000 Int'l Des: 2025-031 Owner: SPXS Country: US Constellation: starlink
LEOCIRCULAR

About Starlink 32673

Description loading...

Live Position

Loading 3D Globe...

Upcoming Passes

Altitude History

Altitude vs Time

uPlot chart will show altitude changes over time

Two-Line Element Set

1 63000U 25031V 25258.12398778 .00046059 00000-0 16715-2 0 9993
2 63000 42.9984 54.9307 0002055 285.1053 74.9572 15.27604894 34244
Epoch: Sep 15, 2025 • Age: 17 hours

Current Status

Altitude 492.0 km
Velocity 7.62 km/s
Sub-Earth Point -35.11°S, 10.97°W
Launch Date Feb 11, 2025
Age 0.5 years
Type internet

Technical Details

Classification Payload
Mass 730.00 kg
Dry Mass 700.00 kg
Total Mass 730.00 kg
Length 0.30 m
Diameter 4.10 m
Span 29.00 m
Shape Box + pan
Manufacturer SPXS
Bus Type Starlink V2M
Phase Status In Orbit
Owner/State SPXS/US

Large Constellations

Loading constellations...